Location: Oberkirch
(48.5323°N, 8.0787°E)
Time: 20:51:17
(UTC+00:00)

Tiros 1 - Pass Details

Date: 16 February 2026
Orbit: 618 x 649 km, 48.4° (Epoch: 5 March)

Event Time Altitude Azimuth Distance (km) Brightness Sun altitude
Rises 14:25:26 0° 284° (WNW) 2,891 10.9 19.3°
Reaches altitude 10° 14:27:59 10° 273° (W) 1,981 10.4 19.0°
Maximum altitude 14:31:52 28° 214° (SSW) 1,154 10.6 18.6°
Drops below altitude 10° 14:35:45 10° 155° (SSE) 1,975 10.0 18.1°
Sets 14:38:17 0° 144° (SE) 2,881 10.6 17.8°
